Location: Gwatt
(46.7204°N, 7.6223°E)
Time: 01:37:22
(UTC+00:00)

Envisat - Pass Details

Date: 25 November 2020
Orbit: 764 x 766 km, 98.1° (Epoch: 19 January)

Event Time Altitude Azimuth Distance (km) Brightness Sun altitude
Rises 04:01:57 0° 31° (NNE) 3,244 6.6 -27.6°
Reaches altitude 10° 04:05:25 10° 55° (NE) 2,311 6.1 -27.0°
Maximum altitude 04:08:06 14° 88° (E) 2,022 6.1 -26.6°
Drops below altitude 10° 04:10:47 10° 120° (ESE) 2,301 6.3 -26.1°
Sets 04:14:13 0° 144° (SE) 3,221 6.8 -25.5°
